Sarasota, FL

1:00 PM EDT on April 20, 2018 (GMT -0400)
Sarasota-bradenton

Weather History for KSRQ - October, 2012

Change the Weather History Date:

Monday, October 22, 2012

  Actual Average Record
Temperature  
Mean Temperature 77 °F 75 °F  
Max Temperature 87 °F 84 °F 92 °F (1993)
Min Temperature 66 °F 66 °F 46 °F (1989)
Degree Days  
Heating Degree Days 0 0  
Month to date heating degree days 0 0  
Since 1 July heating degree days 0 0  
Cooling Degree Days 12 10  
Month to date cooling degree days 308 275  
Year to date cooling degree days 3572 3064  
Growing Degree Days 26 (Base 50)    
Moisture  
Dew Point 61 °F    
Average Humidity 63    
Maximum Humidity 81    
Minimum Humidity 44    
Precipitation  
Precipitation 0.00 in 0.08 in 1.69 in (1911)
Month to date precipitation 3.32 2.42  
Year to date precipitation 43.69 47.85  
Sea Level Pressure  
Sea Level Pressure 30.02 in    
Wind  
Wind Speed 10 mph (ENE)    
Max Wind Speed 18 mph    
Max Gust Speed 24 mph    
Visibility 10 miles    
Events      
T = Trace of Precipitation, MM = Missing Value Source: NWS Daily Summary

Daily Weather History Graph

Daily Weather History Graph

Search for Another Location

Airport or City:

Astronomy

Oct. 22, 2012 Rise Set
Actual Time 7:34 AM EDT 6:54 PM EDT
Civil Twilight 7:10 AM EDT 7:17 PM EDT
Nautical Twilight 6:43 AM EDT 7:45 PM EDT
Astronomical Twilight 6:16 AM EDT 8:12 PM EDT
Moon 2:28 PM EDT (10/22) 12:56 AM EDT (10/22)
Length of Visible Light 12h 07m
Length of Day
11h 19m
First Quarter, 56% of the Moon is Illuminated
Oct 22
First Quarter
Oct 29
Full
Nov 6
Last Quarter
Nov 13
New
Nov 20
First Quarter

Hourly Weather History & Observations

Time (EDT) Temp. Heat Index Dew Point Humidity Pressure Visibility Wind Dir Wind Speed Gust Speed Precip Events Conditions
12:53 AM 66.9 °F - 59.0 °F 76% 30.03 in 10.0 mi ENE 6.9 mph - N/A   Clear
1:53 AM 66.9 °F - 59.0 °F 76% 30.02 in 10.0 mi NE 5.8 mph - N/A   Clear
2:53 AM 66.9 °F - 59.0 °F 76% 30.01 in 10.0 mi NNE 5.8 mph - N/A   Scattered Clouds
3:53 AM 66.9 °F - 57.9 °F 73% 30.01 in 10.0 mi NE 6.9 mph - N/A   Mostly Cloudy
4:53 AM 66.9 °F - 59.0 °F 76% 30.01 in 10.0 mi NNE 5.8 mph - N/A   Mostly Cloudy
5:53 AM 66.0 °F - 59.0 °F 78% 30.01 in 10.0 mi NE 6.9 mph - N/A   Clear
6:53 AM 66.0 °F - 59.0 °F 78% 30.03 in 10.0 mi NE 5.8 mph - N/A   Clear
7:53 AM 66.0 °F - 60.1 °F 81% 30.05 in 10.0 mi NE 5.8 mph - N/A   Clear
8:53 AM 71.1 °F - 61.0 °F 70% 30.06 in 10.0 mi ENE 6.9 mph - N/A   Clear
9:53 AM 75.9 °F - 62.1 °F 62% 30.07 in 10.0 mi ENE 10.4 mph - N/A   Clear
10:53 AM 80.1 °F 81.2 °F 62.1 °F 54% 30.06 in 10.0 mi ENE 9.2 mph 18.4 mph N/A   Clear
11:53 AM 82.0 °F 83.0 °F 62.1 °F 51% 30.05 in 10.0 mi ENE 16.1 mph - N/A   Clear
12:53 PM 84.0 °F 84.4 °F 61.0 °F 46% 30.03 in 10.0 mi East 13.8 mph 24.2 mph N/A   Clear
1:53 PM 86.0 °F 86.3 °F 62.1 °F 44% 29.99 in 10.0 mi ENE 9.2 mph - N/A   Scattered Clouds
2:53 PM 86.0 °F 86.3 °F 62.1 °F 44% 29.97 in 10.0 mi East 15.0 mph 21.9 mph N/A   Partly Cloudy
3:53 PM 84.9 °F 85.4 °F 62.1 °F 46% 29.96 in 10.0 mi ENE 16.1 mph 24.2 mph N/A   Mostly Cloudy
4:53 PM 84.9 °F 84.8 °F 60.1 °F 43% 29.96 in 10.0 mi ENE 16.1 mph 21.9 mph N/A   Clear
5:53 PM 84.0 °F 84.0 °F 60.1 °F 44% 29.96 in 10.0 mi East 13.8 mph - N/A   Clear
6:53 PM 80.1 °F 81.5 °F 63.0 °F 56% 29.98 in 10.0 mi East 12.7 mph 20.7 mph N/A   Clear
7:53 PM 77.0 °F - 63.0 °F 62% 30.01 in 10.0 mi East 8.1 mph - N/A   Clear
8:53 PM 75.0 °F - 63.0 °F 66% 30.04 in 10.0 mi ENE 8.1 mph - N/A   Clear
9:53 PM 73.0 °F - 63.0 °F 71% 30.05 in 10.0 mi ENE 6.9 mph - N/A   Clear
10:53 PM 73.0 °F - 62.1 °F 68% 30.05 in 10.0 mi ENE 10.4 mph - N/A   Clear
11:53 PM 72.0 °F - 62.1 °F 71% 30.04 in 10.0 mi ENE 8.1 mph - N/A   Clear